Location: *
(45.5667°S, 177.5167°W)
Time: 16:20:26
(UTC+00:00)

SL-8 R/B - Pass Details

Date: 29 May 2022
Orbit: 655 x 667 km, 48.4° (Epoch: 28 June)

Event Time Altitude Azimuth Distance (km) Brightness Sun altitude
Rises 06:57:00 0° 297° (WNW) 2,988 8.1 -27.2°
Reaches altitude 10° 06:59:21 10° 298° (WNW) 2,082 7.1 -27.6°
Enters shadow 07:03:03 53° 310° (NW) 820 4.3 -28.3°
